Date String (YYYY-MM-DD hh:mm:ss) UTC,Instrument flags,absolute air pressure of the measurement (hPa),sample flow rate (lpm),inlet stack bypass flow (lpm),air temperature of the measurement (°C),ambient temperature measured by the external sensor (°C),aerosol sample conditioner tube jacket temperature (°C),OPC LED temperature (°C),internal box temperature (°C),relative humidity of the measurement (%),span deviation,mass concentration of particles derived from Lorenz-Mie calculation of OPC scattering (μg/m³),mass concentration of particles derived from Lorenz-Mie calculation of OPC scattering (μg/m³),mass concentration of particles derived from Lorenz-Mie calculation of OPC scattering (μg/m³)
DateTimeUTC,F1_M11,P_M11,Q1_M11,Q2_M11,T1_M11,T2_M11,T3_M11,T4_M11,T5_M11,U1_M11,ZSPAN_M11,X0_M11,X2_M11,X1_M11
2023-09-21 04:00:00,SystemResetWarning,0828.0,5.00,000.00,028.1,026.9,000.0,036.3,029.8,19.3,0000.0,0006.88,0003.26,0002.52
2023-09-21 04:01:00,SystemResetWarning,0828.0,5.00,000.00,028.1,026.9,000.0,036.4,029.9,19.0,0000.0,0006.94,0003.25,0002.52
2023-09-21 04:02:00,SystemResetWarning,0828.0,5.00,000.00,028.1,027.0,000.0,036.4,029.9,18.9,0000.0,0007.02,0003.25,0002.51
2023-09-21 04:03:00,SystemResetWarning,0828.0,4.99,000.00,028.2,027.0,000.0,036.4,029.9,18.4,0000.0,0007.37,0003.24,0002.48
2023-09-21 04:04:00,SystemResetWarning,0828.1,4.99,000.00,028.2,027.0,000.0,036.4,030.0,18.1,0000.0,0006.90,0003.25,0002.48
2023-09-21 04:05:00,SystemResetWarning,0828.1,4.99,000.00,028.2,027.1,000.0,036.4,030.0,18.1,0000.0,0006.45,0003.25,0002.47
2023-09-21 04:06:00,SystemResetWarning,0828.1,5.01,000.00,028.2,027.1,000.0,036.4,030.0,18.4,0000.0,0006.41,0003.23,0002.45
2023-09-21 04:07:00,SystemResetWarning,0828.1,5.01,000.00,028.3,027.1,000.0,036.5,030.0,18.7,0000.0,0006.32,0003.22,0002.46
2023-09-21 04:08:00,SystemResetWarning,0828.1,5.00,000.00,028.3,027.1,000.0,036.5,030.1,18.7,0000.0,0006.91,0003.21,0002.47
2023-09-21 04:09:00,SystemResetWarning,0828.0,5.00,000.00,028.3,027.1,000.0,036.5,030.1,18.6,0000.0,0007.66,0003.21,0002.47
2023-09-21 04:10:00,SystemResetWarning,0828.1,5.00,000.00,028.3,027.1,000.0,036.5,030.1,18.5,0000.0,0007.55,0003.19,0002.48
2023-09-21 04:11:00,SystemResetWarning,0828.0,4.99,000.00,028.4,027.2,000.0,036.5,030.1,18.3,0000.0,0007.28,0003.17,0002.49
2023-09-21 04:12:00,SystemResetWarning,0828.1,4.98,000.00,028.4,027.2,000.0,036.6,030.1,18.3,0000.0,0007.39,0003.16,0002.50
2023-09-21 04:13:00,SystemResetWarning,0828.1,5.00,000.00,028.4,027.2,000.0,036.6,030.1,18.1,0000.0,0008.18,0003.17,0002.51
2023-09-21 04:14:00,SystemResetWarning,0828.1,5.01,000.00,028.4,027.2,000.0,036.6,030.1,18.5,0000.0,0008.20,0003.17,0002.53
2023-09-21 04:15:00,SystemResetWarning,0828.0,5.00,000.00,028.4,027.2,000.0,036.7,030.2,18.8,0000.0,0009.07,0003.17,0002.52
2023-09-21 04:16:00,SystemResetWarning,0828.1,5.01,000.00,028.4,027.2,000.0,036.7,030.2,19.0,0000.0,0009.30,0003.15,0002.53
2023-09-21 04:17:00,SystemResetWarning,0828.1,5.00,000.00,028.5,027.2,000.0,036.7,030.2,19.2,0000.0,0009.42,0003.15,0002.54
2023-09-21 04:18:00,SystemResetWarning,0828.0,4.99,000.00,028.5,026.8,000.0,036.7,030.1,19.2,0000.0,0009.33,0003.13,0002.54
2023-09-21 04:19:00,SystemResetWarning,0828.1,5.01,000.00,028.4,025.1,000.0,036.7,029.6,19.3,0000.0,0008.85,0003.11,0002.53
2023-09-21 04:20:00,SystemResetWarning,0828.1,5.01,000.00,028.2,024.4,000.0,036.6,029.4,19.5,0000.0,0008.63,0003.13,0002.54
2023-09-21 04:21:00,SystemResetWarning,0828.1,5.00,000.00,028.1,024.6,000.0,036.6,029.4,19.6,0000.0,0008.86,0003.13,0002.54
2023-09-21 04:22:00,SystemResetWarning,0828.1,5.00,000.00,028.1,024.8,000.0,036.6,029.4,19.8,0000.0,0008.99,0003.15,0002.55
2023-09-21 04:23:00,SystemResetWarning,0828.1,5.01,000.00,028.0,025.2,000.0,036.5,029.4,19.8,0000.0,0009.03,0003.20,0002.56
2023-09-21 04:24:00,SystemResetWarning,0828.1,5.01,000.00,028.0,025.5,000.0,036.5,029.5,19.9,0000.0,0008.29,0003.21,0002.55
2023-09-21 04:25:00,SystemResetWarning,0828.1,4.99,000.00,028.0,025.8,000.0,036.5,029.6,19.9,0000.0,0007.98,0003.20,0002.55
2023-09-21 04:26:00,SystemResetWarning,0828.0,5.00,000.00,028.0,026.0,000.0,036.5,029.6,19.8,0000.0,0007.42,0003.20,0002.55
2023-09-21 04:27:00,SystemResetWarning,0828.0,5.00,000.00,028.1,026.2,000.0,036.5,029.7,19.8,0000.0,0006.95,0003.22,0002.55
2023-09-21 04:28:00,SystemResetWarning,0828.0,5.00,000.00,028.1,026.4,000.0,036.5,029.7,19.9,0000.0,0006.68,0003.21,0002.55
2023-09-21 04:29:00,SystemResetWarning,0827.9,5.00,000.00,028.1,026.5,000.0,036.5,029.8,19.9,0000.0,0007.24,0003.22,0002.55
2023-09-21 04:30:00,SystemResetWarning,0827.9,5.00,000.00,028.1,026.6,000.0,036.5,029.8,19.9,0000.0,0007.46,0003.26,0002.55
2023-09-21 04:31:00,SystemResetWarning,0828.0,5.00,000.00,028.1,026.7,000.0,036.5,029.8,19.8,0000.0,0007.35,0003.29,0002.55
2023-09-21 04:32:00,SystemResetWarning,0828.0,5.00,000.00,028.2,026.8,000.0,036.5,029.8,19.8,0000.0,0007.20,0003.32,0002.54
2023-09-21 04:33:00,SystemResetWarning,0828.0,4.99,000.00,028.2,026.9,000.0,036.5,029.9,19.8,0000.0,0006.91,0003.29,0002.52
2023-09-21 04:34:00,SystemResetWarning,0828.0,5.00,000.00,028.2,027.0,000.0,036.5,029.9,19.8,0000.0,0007.07,0003.28,0002.50
2023-09-21 04:35:00,SystemResetWarning,0828.1,5.02,000.00,028.3,027.0,000.0,036.5,030.0,19.8,0000.0,0007.17,0003.27,0002.48
2023-09-21 04:36:00,SystemResetWarning,0828.1,5.00,000.00,028.3,027.1,000.0,036.5,030.0,19.8,0000.0,0007.32,0003.29,0002.48
2023-09-21 04:37:00,SystemResetWarning,0828.1,5.00,000.00,028.3,027.1,000.0,036.6,030.0,20.1,0000.0,0007.13,0003.29,0002.49
2023-09-21 04:38:00,SystemResetWarning,0828.1,5.00,000.00,028.3,027.2,000.0,036.6,030.1,20.4,0000.0,0006.72,0003.25,0002.48
2023-09-21 04:39:00,SystemResetWarning,0828.1,4.99,000.00,028.4,027.2,000.0,036.6,030.1,20.5,0000.0,0006.66,0003.25,0002.48
2023-09-21 04:40:00,SystemResetWarning,0828.1,5.00,000.00,028.4,027.2,000.0,036.6,030.1,20.7,0000.0,0006.03,0003.22,0002.48
2023-09-21 04:41:00,SystemResetWarning,0828.1,5.00,000.00,028.4,027.3,000.0,036.6,030.1,20.7,0000.0,0005.77,0003.20,0002.47
2023-09-21 04:42:00,SystemResetWarning,0828.1,5.00,000.00,028.4,026.8,000.0,036.6,030.0,20.8,0000.0,0005.53,0003.16,0002.47
2023-09-21 04:43:00,SystemResetWarning,0828.0,5.00,000.00,028.3,025.0,000.0,036.6,029.6,20.9,0000.0,0005.41,0003.16,0002.46
2023-09-21 04:44:00,SystemResetWarning,0828.1,5.01,000.00,028.2,024.4,000.0,036.5,029.5,20.7,0000.0,0005.59,0003.17,0002.48
2023-09-21 04:45:00,SystemResetWarning,0828.0,5.01,000.00,028.1,024.5,000.0,036.5,029.3,20.4,0000.0,0005.41,0003.17,0002.50
2023-09-21 04:46:00,SystemResetWarning,0827.9,5.00,000.00,028.0,024.8,000.0,036.5,029.3,20.5,0000.0,0005.44,0003.18,0002.52
2023-09-21 04:47:00,SystemResetWarning,0827.9,5.00,000.00,028.0,025.1,000.0,036.5,029.3,20.6,0000.0,0005.35,0003.15,0002.52
2023-09-21 04:48:00,SystemResetWarning,0827.9,5.00,000.00,028.0,025.4,000.0,036.5,029.4,20.3,0000.0,0005.38,0003.14,0002.50
2023-09-21 04:49:00,SystemResetWarning,0827.8,4.99,000.00,028.0,025.7,000.0,036.5,029.4,20.3,0000.0,0005.60,0003.16,0002.50
2023-09-21 04:50:00,SystemResetWarning,0827.8,4.99,000.00,028.0,026.0,000.0,036.5,029.5,20.2,0000.0,0005.55,0003.18,0002.49
2023-09-21 04:51:00,SystemResetWarning,0827.8,5.00,000.00,028.0,026.1,000.0,036.5,029.5,20.2,0000.0,0006.82,0003.18,0002.46
2023-09-21 04:52:00,SystemResetWarning,0827.8,5.01,000.00,028.0,026.3,000.0,036.4,029.6,20.1,0000.0,0007.19,0003.18,0002.45
2023-09-21 04:53:00,SystemResetWarning,0827.8,5.01,000.00,028.0,026.5,000.0,036.4,029.6,20.1,0000.0,0007.29,0003.18,0002.45
2023-09-21 04:54:00,SystemResetWarning,0827.8,4.99,000.00,028.1,026.6,000.0,036.5,029.7,20.0,0000.0,0007.26,0003.17,0002.45
2023-09-21 04:55:00,SystemResetWarning,0827.8,4.99,000.00,028.1,026.7,000.0,036.5,029.7,19.9,0000.0,0007.00,0003.18,0002.44
2023-09-21 04:56:00,SystemResetWarning,0827.8,5.01,000.00,028.1,026.8,000.0,036.5,029.8,19.8,0000.0,0007.24,0003.19,0002.41
2023-09-21 04:57:00,SystemResetWarning,0827.7,5.01,000.00,028.1,026.8,000.0,036.5,029.8,19.7,0000.0,0006.92,0003.15,0002.39
2023-09-21 04:58:00,SystemResetWarning,0827.8,4.99,000.00,028.2,026.9,000.0,036.5,029.8,19.6,0000.0,0006.73,0003.13,0002.37
2023-09-21 04:59:00,SystemResetWarning,0827.8,4.99,000.00,028.2,026.9,000.0,036.5,029.9,19.6,0000.0,0006.72,0003.13,0002.36
